�N����,�����b,�ŏ������i�x�j,���ϕ����i�x�j,�ő啗���i�x�j,�ŏ�����(m/s),���ϕ���(m/s),�ő啗��(m/s),�C��(���j,���x�i���j,�C��(hPa),�~�J��(mm),�~�J����(�b�j,�~�J���x(mm/h),�ő�~�J���x(mm/h),�~�Ђ傤��(hit/���u),�~�Ђ傤����(�b�j,�~�Ђ傤���x(hit/���uh),�ő�~�Ђ傤���x(hit/���uh),�q�[�^���x(���j,�q�[�^�[�d���iV),�d���d���iV),�Q�Ɠd���iV)
2012/04/01,00:00:01,010,021,040,4.5,5.4,6.9,16.1,48.8,1015.1,0.00,0,0.0,////,0.0,0,0.0,////,15.1,0.0,12.4,3.523
2012/04/01,00:10:01,356,001,006,5.4,5.9,6.4,16.1,47.4,1015.1,0.00,0,0.0,////,0.0,0,0.0,////,15.0,0.0,12.4,3.523
2012/04/01,00:20:01,357,009,018,4.0,4.3,4.7,16.1,48.3,1015.3,0.00,0,0.0,////,0.0,0,0.0,////,15.0,0.0,12.3,3.521
2012/04/01,00:30:01,015,030,042,3.1,4.9,6.1,16.1,48.9,1015.3,0.00,0,0.0,////,0.0,0,0.0,////,15.1,0.0,12.3,3.524
2012/04/01,00:40:01,001,019,030,4.0,4.8,5.3,16.0,47.1,1015.2,0.00,0,0.0,////,0.0,0,0.0,////,15.1,0.0,12.2,3.521
2012/04/01,00:50:01,009,014,020,4.3,4.9,5.5,16.0,49.5,1015.1,0.00,0,0.0,////,0.0,0,0.0,////,15.0,0.0,12.4,3.523
2012/04/01,01:00:01,000,004,011,5.0,6.6,7.4,16.0,48.2,1015.0,0.00,0,0.0,////,0.0,0,0.0,////,14.8,0.0,12.2,3.523
2012/04/01,01:10:01,344,000,009,4.8,5.1,5.5,16.0,48.7,1015.0,0.00,0,0.0,////,0.0,0,0.0,////,14.6,0.0,12.3,3.521
2012/04/01,01:20:01,024,039,068,3.4,5.3,7.4,16.0,47.4,1014.8,0.00,0,0.0,////,0.0,0,0.0,////,14.6,0.0,12.4,3.523
2012/04/01,01:30:01,006,027,060,3.5,4.2,5.0,15.9,48.2,1014.9,0.00,0,0.0,////,0.0,0,0.0,////,14.8,0.0,12.3,3.523
2012/04/01,01:40:01,022,023,024,5.6,6.3,6.7,15.9,48.6,1014.8,0.00,0,0.0,////,0.0,0,0.0,////,14.8,0.0,12.3,3.523
2012/04/01,01:50:01,010,018,031,5.7,6.4,6.9,15.9,46.5,1014.8,0.00,0,0.0,////,0.0,0,0.0,////,14.6,0.0,12.2,3.524
2012/04/01,02:00:01,010,014,018,5.2,6.6,8.0,15.9,47.7,1014.7,0.00,0,0.0,////,0.0,0,0.0,////,14.6,0.0,12.4,3.523
2012/04/01,02:10:01,023,028,032,7.1,7.3,7.5,15.9,48.4,1014.6,0.00,0,0.0,////,0.0,0,0.0,////,15.0,0.0,12.4,3.521
2012/04/01,02:20:01,009,010,011,3.4,4.4,5.6,15.9,49.4,1014.6,0.00,0,0.0,////,0.0,0,0.0,////,14.6,0.0,12.3,3.521
2012/04/01,02:30:01,010,015,020,5.2,5.7,6.0,16.0,48.6,1014.5,0.00,0,0.0,////,0.0,0,0.0,////,14.8,0.0,12.3,3.521
2012/04/01,02:40:01,017,024,034,5.4,5.6,5.8,15.9,47.4,1014.5,0.00,0,0.0,////,0.0,0,0.0,////,14.8,0.0,12.2,3.521
2012/04/01,02:50:01,011,016,021,3.7,6.2,8.3,15.8,46.8,1014.4,0.00,0,0.0,////,0.0,0,0.0,////,14.6,0.0,12.2,3.524
2012/04/01,03:00:01,014,018,021,6.0,6.5,6.8,15.8,48.2,1014.5,0.00,0,0.0,////,0.0,0,0.0,////,14.8,0.0,12.4,3.521
2012/04/01,03:10:01,008,012,019,5.2,5.5,5.9,15.8,48.1,1014.5,0.00,0,0.0,////,0.0,0,0.0,////,14.6,0.0,12.4,3.523
2012/04/01,03:20:01,028,032,036,6.4,6.6,6.8,15.8,50.5,1014.4,0.00,0,0.0,////,0.0,0,0.0,////,14.8,0.0,12.3,3.523
2012/04/01,03:30:01,009,018,028,6.7,7.0,7.4,15.8,48.7,1014.3,0.00,0,0.0,////,0.0,0,0.0,////,14.8,0.0,12.2,3.521
2012/04/01,03:40:01,023,028,030,5.6,6.1,6.3,15.7,47.1,1014.4,0.00,0,0.0,////,0.0,0,0.0,////,14.4,0.0,12.4,3.521
2012/04/01,03:50:01,348,352,000,5.3,6.4,7.0,15.8,49.4,1014.4,0.00,0,0.0,////,0.0,0,0.0,////,14.6,0.0,12.3,3.523
2012/04/01,04:00:01,013,020,025,4.6,5.4,6.1,15.8,47.3,1014.4,0.00,0,0.0,////,0.0,0,0.0,////,14.6,0.0,12.2,3.523
2012/04/01,04:10:01,039,042,047,3.9,5.0,6.2,15.8,47.3,1014.5,0.00,0,0.0,////,0.0,0,0.0,////,14.6,0.0,12.4,3.523
2012/04/01,04:20:01,023,029,036,7.4,8.4,9.4,15.8,45.6,1014.3,0.00,0,0.0,////,0.0,0,0.0,////,14.6,0.0,12.2,3.524
2012/04/01,04:30:01,022,032,046,4.9,5.4,5.8,15.9,48.8,1014.4,0.00,0,0.0,////,0.0,0,0.0,////,14.6,0.0,12.4,3.521
2012/04/01,04:40:01,011,019,028,5.4,5.7,6.0,15.9,48.4,1014.4,0.00,0,0.0,////,0.0,0,0.0,////,14.8,0.0,12.3,3.523
2012/04/01,04:50:01,014,021,024,6.1,6.7,7.5,15.8,46.5,1014.5,0.00,0,0.0,////,0.0,0,0.0,////,14.6,0.0,12.2,3.521
2012/04/01,05:00:01,355,021,042,3.1,3.5,3.9,15.8,47.2,1014.4,0.00,0,0.0,////,0.0,0,0.0,////,14.6,0.0,12.2,3.521
2012/04/01,05:10:01,004,016,034,5.7,6.0,6.3,15.8,45.4,1014.4,0.00,0,0.0,////,0.0,0,0.0,////,14.6,0.0,12.3,3.523
2012/04/01,05:20:01,021,028,035,2.9,3.7,5.1,15.8,47.8,1014.5,0.00,0,0.0,////,0.0,0,0.0,////,14.8,0.0,12.4,3.523
2012/04/01,05:30:01,026,030,035,4.9,5.2,5.5,15.8,44.7,1014.6,0.00,0,0.0,////,0.0,0,0.0,////,14.6,0.0,12.3,3.523
2012/04/01,05:40:01,353,000,004,4.5,5.2,6.4,15.9,47.5,1014.6,0.00,0,0.0,////,0.0,0,0.0,////,14.8,0.0,12.3,3.524
2012/04/01,05:50:01,014,015,018,6.4,6.6,6.9,16.0,46.6,1014.6,0.00,0,0.0,////,0.0,0,0.0,////,14.8,0.0,12.4,3.523
2012/04/01,06:00:01,018,023,032,7.3,8.1,8.6,15.9,46.6,1014.7,0.00,0,0.0,////,0.0,0,0.0,////,14.8,0.0,12.3,3.523
2012/04/01,06:10:01,016,018,020,5.1,6.1,6.6,15.9,46.0,1014.7,0.00,0,0.0,////,0.0,0,0.0,////,14.8,0.0,12.3,3.523
2012/04/01,06:20:01,029,037,045,3.4,4.4,5.4,16.0,44.6,1014.9,0.00,0,0.0,////,0.0,0,0.0,////,14.8,0.0,12.3,3.523
2012/04/01,06:30:01,029,037,041,6.5,7.1,7.6,16.0,45.3,1014.9,0.00,0,0.0,////,0.0,0,0.0,////,14.8,0.0,12.4,3.523
2012/04/01,06:40:01,030,032,035,5.5,6.5,7.2,16.2,46.5,1015.1,0.00,0,0.0,////,0.0,0,0.0,////,15.0,0.0,12.3,3.523
2012/04/01,06:50:01,023,031,046,4.5,5.2,5.7,16.1,46.1,1015.2,0.00,0,0.0,////,0.0,0,0.0,////,15.1,0.0,12.2,3.523
2012/04/01,07:00:01,019,025,029,4.9,5.3,6.1,16.2,45.6,1015.1,0.00,0,0.0,////,0.0,0,0.0,////,15.1,0.0,12.3,3.523
2012/04/01,07:10:01,020,028,039,4.7,5.4,5.9,16.2,44.6,1015.3,0.00,0,0.0,////,0.0,0,0.0,////,15.5,0.0,12.3,3.521
2012/04/01,07:20:01,017,021,028,5.6,5.9,6.1,16.3,45.9,1015.4,0.00,0,0.0,////,0.0,0,0.0,////,15.6,0.0,12.4,3.524
2012/04/01,07:30:01,020,026,031,3.6,5.7,7.1,16.4,44.1,1015.5,0.00,0,0.0,////,0.0,0,0.0,////,15.8,0.0,12.4,3.521
2012/04/01,07:40:01,032,035,039,6.1,6.9,8.1,16.4,44.8,1015.6,0.00,0,0.0,////,0.0,0,0.0,////,16.2,0.0,12.2,3.521
2012/04/01,07:50:01,032,035,039,5.2,5.6,5.9,16.7,43.9,1015.7,0.00,0,0.0,////,0.0,0,0.0,////,16.3,0.0,12.2,3.523
2012/04/01,08:00:01,021,029,039,6.0,6.7,7.2,16.8,44.4,1015.8,0.00,0,0.0,////,0.0,0,0.0,////,16.7,0.0,12.3,3.521
2012/04/01,08:10:01,017,032,053,3.9,4.7,5.2,17.0,42.9,1015.7,0.00,0,0.0,////,0.0,0,0.0,////,17.2,0.0,12.3,3.521
2012/04/01,08:20:01,004,031,056,3.1,4.1,5.6,17.1,41.9,1015.9,0.00,0,0.0,////,0.0,0,0.0,////,17.2,0.0,12.2,3.521
2012/04/01,08:30:01,016,032,042,4.1,5.0,5.5,17.3,44.4,1016.1,0.00,0,0.0,////,0.0,0,0.0,////,17.4,0.0,12.3,3.521
2012/04/01,08:40:01,352,009,022,3.7,4.4,4.9,17.4,42.9,1016.1,0.00,0,0.0,////,0.0,0,0.0,////,18.4,0.0,12.2,3.521
2012/04/01,08:50:01,015,030,044,6.7,7.4,8.3,17.7,43.2,1016.3,0.00,0,0.0,////,0.0,0,0.0,////,18.4,0.0,12.2,3.521
2012/04/01,09:00:01,343,357,017,2.3,3.4,4.0,17.7,42.7,1016.3,0.00,0,0.0,////,0.0,0,0.0,////,18.7,0.0,12.3,3.521
2012/04/01,09:10:01,011,025,037,6.3,6.8,7.2,17.9,43.9,1016.3,0.00,0,0.0,////,0.0,0,0.0,////,18.7,0.0,12.3,3.523
2012/04/01,09:20:01,016,020,025,3.6,3.9,4.2,18.0,43.4,1016.4,0.00,0,0.0,////,0.0,0,0.0,////,19.1,0.0,12.2,3.523
2012/04/01,09:30:01,032,041,048,4.5,4.9,5.6,18.1,42.7,1016.5,0.00,0,0.0,////,0.0,0,0.0,////,19.3,0.0,12.2,3.523
2012/04/01,09:40:01,018,023,027,5.4,5.7,6.1,18.3,43.6,1016.5,0.00,0,0.0,////,0.0,0,0.0,////,19.6,0.0,12.4,3.521
2012/04/01,09:50:01,033,035,038,5.8,6.3,6.7,18.4,41.6,1016.6,0.00,0,0.0,////,0.0,0,0.0,////,20.0,0.0,12.3,3.521
2012/04/01,10:00:01,004,012,018,4.6,5.2,5.7,18.6,42.2,1016.5,0.00,0,0.0,////,0.0,0,0.0,////,19.8,0.0,12.2,3.521
2012/04/01,10:10:01,022,027,030,5.9,6.9,7.9,18.5,43.3,1016.7,0.00,0,0.0,////,0.0,0,0.0,////,20.0,0.0,12.2,3.523
2012/04/01,10:20:01,033,041,056,5.1,6.1,7.2,18.6,44.2,1016.7,0.00,0,0.0,////,0.0,0,0.0,////,20.5,0.0,12.2,3.523
2012/04/01,10:30:01,021,028,041,3.3,4.9,5.7,18.7,44.5,1016.8,0.00,0,0.0,////,0.0,0,0.0,////,20.3,0.0,12.4,3.521
2012/04/01,10:40:01,029,035,041,2.9,3.5,4.2,18.7,44.9,1016.7,0.00,0,0.0,////,0.0,0,0.0,////,20.5,0.0,12.3,3.523
2012/04/01,10:50:01,006,025,047,3.2,3.8,4.6,18.7,43.6,1016.7,0.00,0,0.0,////,0.0,0,0.0,////,20.5,0.0,12.3,3.521
2012/04/01,11:00:01,354,020,036,2.6,4.1,5.4,19.1,44.6,1016.8,0.00,0,0.0,////,0.0,0,0.0,////,20.3,0.0,12.2,3.523
2012/04/01,11:10:01,022,048,063,4.0,4.8,5.9,19.1,45.3,1016.7,0.00,0,0.0,////,0.0,0,0.0,////,21.0,0.0,12.3,3.521
2012/04/01,11:20:01,032,033,034,2.9,3.4,3.9,18.5,44.5,1016.7,0.00,0,0.0,////,0.0,0,0.0,////,19.6,0.0,12.2,3.521
2012/04/01,11:30:01,023,033,043,5.3,6.5,7.7,19.0,44.6,1016.6,0.00,0,0.0,////,0.0,0,0.0,////,20.6,0.0,12.3,3.523
2012/04/01,11:40:01,025,034,042,4.1,4.6,5.1,18.9,45.2,1016.6,0.00,0,0.0,////,0.0,0,0.0,////,20.5,0.0,12.2,3.521
2012/04/01,11:50:01,035,040,043,5.1,5.5,5.8,19.0,43.7,1016.6,0.00,0,0.0,////,0.0,0,0.0,////,20.8,0.0,12.2,3.521
2012/04/01,12:00:01,027,031,034,5.1,5.5,5.9,19.0,43.7,1016.5,0.00,0,0.0,////,0.0,0,0.0,////,21.2,0.0,12.3,3.521
2012/04/01,12:10:01,030,032,034,4.1,5.1,5.9,19.0,45.4,1016.4,0.00,0,0.0,////,0.0,0,0.0,////,21.0,0.0,12.3,3.523
2012/04/01,12:20:01,026,033,039,6.3,6.7,7.0,19.2,46.0,1016.2,0.00,0,0.0,////,0.0,0,0.0,////,21.3,0.0,12.2,3.524
2012/04/01,12:30:01,021,030,041,3.9,4.8,5.3,19.3,44.4,1016.1,0.00,0,0.0,////,0.0,0,0.0,////,21.3,0.0,12.2,3.521
2012/04/01,12:40:01,022,027,030,4.6,5.0,5.3,19.3,45.8,1016.2,0.00,0,0.0,////,0.0,0,0.0,////,21.3,0.0,12.4,3.521
2012/04/01,12:50:01,029,032,035,4.6,5.1,5.4,19.1,46.7,1016.2,0.00,0,0.0,////,0.0,0,0.0,////,21.3,0.0,12.2,3.521
2012/04/01,13:00:01,036,043,048,3.8,4.2,4.7,19.3,45.8,1016.1,0.00,0,0.0,////,0.0,0,0.0,////,21.3,0.0,12.3,3.521
2012/04/01,13:10:01,023,033,040,3.3,4.1,4.8,18.8,46.6,1016.0,0.00,0,0.0,////,0.0,0,0.0,////,20.6,0.0,12.2,3.521
2012/04/01,13:20:01,009,014,020,5.0,5.1,5.2,19.3,47.3,1015.8,0.00,0,0.0,////,0.0,0,0.0,////,21.2,0.0,12.3,3.523
2012/04/01,13:30:01,026,036,046,2.8,3.8,4.9,19.1,46.9,1015.7,0.00,0,0.0,////,0.0,0,0.0,////,21.0,0.0,12.3,3.521
2012/04/01,13:40:01,000,007,013,3.4,4.3,5.2,19.1,47.7,1015.6,0.00,0,0.0,////,0.0,0,0.0,////,20.8,0.0,12.2,3.521
2012/04/01,13:50:01,024,027,028,4.5,5.1,5.6,19.0,48.1,1015.5,0.00,0,0.0,////,0.0,0,0.0,////,21.0,0.0,12.2,3.523
2012/04/01,14:00:01,013,020,024,4.6,5.6,6.2,19.3,49.6,1015.5,0.00,0,0.0,////,0.0,0,0.0,////,21.0,0.0,12.3,3.523
2012/04/01,14:10:01,019,026,033,4.1,4.8,5.7,19.2,48.2,1015.4,0.00,0,0.0,////,0.0,0,0.0,////,21.0,0.0,12.2,3.521
2012/04/01,14:20:01,024,028,032,3.0,3.7,4.5,19.4,47.0,1015.3,0.00,0,0.0,////,0.0,0,0.0,////,21.2,0.0,12.4,3.523
2012/04/01,14:30:01,020,040,057,4.9,5.0,5.2,19.1,47.9,1015.2,0.00,0,0.0,////,0.0,0,0.0,////,20.6,0.0,12.4,3.523
2012/04/01,14:40:01,020,022,024,3.1,3.7,4.3,19.2,49.0,1015.3,0.00,0,0.0,////,0.0,0,0.0,////,20.6,0.0,12.4,3.523
2012/04/01,14:50:01,027,048,064,3.6,4.4,5.0,19.1,48.3,1015.2,0.00,0,0.0,////,0.0,0,0.0,////,21.0,0.0,12.3,3.523
2012/04/01,15:00:01,028,030,032,3.3,3.6,3.8,19.2,48.9,1015.2,0.00,0,0.0,////,0.0,0,0.0,////,20.8,0.0,12.2,3.521
2012/04/01,15:10:01,000,013,024,5.9,6.8,7.7,18.9,49.3,1015.2,0.00,0,0.0,////,0.0,0,0.0,////,20.3,0.0,12.4,3.523
2012/04/01,15:20:01,017,037,053,4.7,5.6,6.3,19.0,49.5,1015.2,0.00,0,0.0,////,0.0,0,0.0,////,20.5,0.0,12.2,3.521
2012/04/01,15:30:01,031,036,043,4.1,4.9,5.4,19.1,49.4,1015.1,0.00,0,0.0,////,0.0,0,0.0,////,20.5,0.0,12.3,3.523
2012/04/01,15:40:01,033,034,034,5.5,5.9,6.1,18.9,49.3,1015.1,0.00,0,0.0,////,0.0,0,0.0,////,20.3,0.0,12.3,3.523
2012/04/01,15:50:01,009,021,029,4.7,5.1,5.6,18.8,50.0,1015.1,0.00,0,0.0,////,0.0,0,0.0,////,20.1,0.0,12.3,3.521
2012/04/01,16:00:01,052,074,109,1.6,2.3,2.8,19.0,48.4,1015.1,0.00,0,0.0,////,0.0,0,0.0,////,20.1,0.0,12.2,3.523
2012/04/01,16:10:01,031,046,066,2.1,2.7,3.1,19.1,46.4,1015.2,0.00,0,0.0,////,0.0,0,0.0,////,20.6,0.0,12.2,3.521
2012/04/01,16:20:01,010,022,038,4.2,4.7,5.4,19.1,46.5,1015.2,0.00,0,0.0,////,0.0,0,0.0,////,20.6,0.0,12.4,3.521
2012/04/01,16:30:01,057,058,058,2.6,3.0,3.5,19.0,47.3,1015.1,0.00,0,0.0,////,0.0,0,0.0,////,20.3,0.0,12.2,3.521
2012/04/01,16:40:01,025,050,069,2.1,2.2,2.2,18.9,49.2,1015.0,0.00,0,0.0,////,0.0,0,0.0,////,20.3,0.0,12.4,3.523
2012/04/01,16:50:01,090,095,103,2.1,2.5,2.9,18.6,47.7,1015.0,0.00,0,0.0,////,0.0,0,0.0,////,19.3,0.0,12.3,3.521
2012/04/01,17:00:01,091,098,111,1.2,1.4,1.6,18.5,49.2,1015.0,0.00,0,0.0,////,0.0,0,0.0,////,19.3,0.0,12.3,3.521
2012/04/01,17:10:01,024,029,037,1.7,1.8,2.0,18.4,49.8,1015.1,0.00,0,0.0,////,0.0,0,0.0,////,18.9,0.0,12.3,3.521
2012/04/01,17:20:01,074,084,096,2.4,3.0,3.7,18.2,49.6,1015.1,0.00,0,0.0,////,0.0,0,0.0,////,18.4,0.0,12.2,3.525
2012/04/01,17:30:01,073,082,088,3.1,3.2,3.3,18.1,49.6,1015.1,0.00,0,0.0,////,0.0,0,0.0,////,18.4,0.0,12.2,3.523
2012/04/01,17:40:01,355,007,026,1.1,1.9,2.3,18.0,49.4,1015.2,0.00,0,0.0,////,0.0,0,0.0,////,17.9,0.0,12.3,3.524
2012/04/01,17:50:01,035,047,054,2.7,3.2,3.5,17.9,50.0,1015.4,0.00,0,0.0,////,0.0,0,0.0,////,17.5,0.0,12.4,3.523
2012/04/01,18:00:01,057,058,059,0.7,1.0,1.3,17.7,50.3,1015.3,0.00,0,0.0,////,0.0,0,0.0,////,17.0,0.0,12.3,3.521
2012/04/01,18:10:01,073,075,077,1.3,1.8,2.4,17.5,51.4,1015.4,0.00,0,0.0,////,0.0,0,0.0,////,16.7,0.0,12.2,3.523
2012/04/01,18:20:01,044,068,082,1.0,1.4,1.6,17.4,50.7,1015.4,0.00,0,0.0,////,0.0,0,0.0,////,16.5,0.0,12.2,3.523
2012/04/01,18:30:01,077,099,118,1.4,1.9,2.8,17.4,51.4,1015.5,0.00,0,0.0,////,0.0,0,0.0,////,16.2,0.0,12.0,3.521
2012/04/01,18:40:01,046,071,104,1.1,1.9,2.3,17.4,50.8,1015.6,0.00,0,0.0,////,0.0,0,0.0,////,16.3,0.0,12.2,3.523
2012/04/01,18:50:01,067,074,078,4.5,4.8,5.3,17.3,50.9,1015.4,0.00,0,0.0,////,0.0,0,0.0,////,16.0,0.0,12.3,3.523
2012/04/01,19:00:01,056,062,069,2.4,2.4,2.5,17.1,51.2,1015.6,0.00,0,0.0,////,0.0,0,0.0,////,15.8,0.0,12.3,3.523
2012/04/01,19:10:01,059,077,090,1.4,1.9,2.4,17.1,51.7,1015.6,0.00,0,0.0,////,0.0,0,0.0,////,15.8,0.0,12.3,3.521
2012/04/01,19:20:01,024,033,041,3.7,4.0,4.5,17.2,51.3,1015.6,0.00,0,0.0,////,0.0,0,0.0,////,15.8,0.0,12.4,3.521
2012/04/01,19:30:01,080,088,097,1.6,1.8,2.0,17.2,53.0,1015.7,0.00,0,0.0,////,0.0,0,0.0,////,15.8,0.0,12.4,3.523
2012/04/01,19:40:01,082,091,102,2.1,2.4,2.7,17.2,51.2,1015.8,0.00,0,0.0,////,0.0,0,0.0,////,15.6,0.0,12.2,3.521
2012/04/01,19:50:01,042,057,071,1.3,1.4,1.6,17.1,50.0,1015.7,0.00,0,0.0,////,0.0,0,0.0,////,15.6,0.0,12.3,3.523
2012/04/01,20:00:01,070,086,100,0.9,1.1,1.3,17.0,51.0,1015.7,0.00,0,0.0,////,0.0,0,0.0,////,15.8,0.0,12.3,3.523
2012/04/01,20:10:01,094,103,108,1.1,1.7,2.1,17.1,49.9,1015.8,0.00,0,0.0,////,0.0,0,0.0,////,15.5,0.0,12.4,3.523
2012/04/01,20:20:01,014,018,026,1.2,1.6,2.0,17.0,49.9,1015.9,0.00,0,0.0,////,0.0,0,0.0,////,15.6,0.0,12.2,3.523
2012/04/01,20:30:01,054,063,068,2.0,2.2,2.5,17.0,51.2,1016.0,0.00,0,0.0,////,0.0,0,0.0,////,15.5,0.0,12.4,3.523
2012/04/01,20:40:01,062,069,079,1.7,1.9,2.1,17.2,50.5,1016.1,0.00,0,0.0,////,0.0,0,0.0,////,15.6,0.0,12.3,3.523
2012/04/01,20:50:01,039,062,080,0.8,1.0,1.1,17.3,50.1,1016.2,0.00,0,0.0,////,0.0,0,0.0,////,15.8,0.0,12.4,3.523
2012/04/01,21:00:01,052,055,056,2.1,2.3,2.4,17.2,51.4,1016.3,0.00,0,0.0,////,0.0,0,0.0,////,15.6,0.0,12.2,3.523
2012/04/01,21:10:01,078,086,093,0.7,0.9,1.1,17.0,53.5,1016.3,0.00,0,0.0,////,0.0,0,0.0,////,15.5,0.0,12.2,3.523
2012/04/01,21:20:01,117,129,152,0.6,0.8,1.1,17.1,53.9,1016.4,0.00,0,0.0,////,0.0,0,0.0,////,15.6,0.0,12.4,3.523
2012/04/01,21:30:01,158,163,168,0.7,0.9,1.1,16.5,56.6,1016.5,0.00,0,0.0,////,0.0,0,0.0,////,15.1,0.0,12.3,3.523
2012/04/01,21:40:01,118,132,144,1.0,1.2,1.3,16.3,58.1,1016.5,0.00,0,0.0,////,0.0,0,0.0,////,14.8,0.0,12.4,3.521
2012/04/01,21:50:01,136,154,167,1.5,1.8,2.0,16.2,58.8,1016.5,0.00,0,0.0,////,0.0,0,0.0,////,14.6,0.0,12.4,3.521
2012/04/01,22:00:01,133,141,148,1.1,1.2,1.3,16.1,59.1,1016.5,0.00,0,0.0,////,0.0,0,0.0,////,14.4,0.0,12.2,3.523
2012/04/01,22:10:01,141,152,161,1.4,1.6,1.8,16.2,58.6,1016.5,0.00,0,0.0,////,0.0,0,0.0,////,14.4,0.0,12.3,3.523
2012/04/01,22:20:01,164,167,170,1.3,1.4,1.5,16.2,58.2,1016.4,0.00,0,0.0,////,0.0,0,0.0,////,15.0,0.0,12.3,3.523
2012/04/01,22:30:01,127,137,144,1.5,1.7,1.9,16.0,58.8,1016.4,0.00,0,0.0,////,0.0,0,0.0,////,14.4,0.0,12.2,3.523
2012/04/01,22:40:01,138,144,153,1.2,1.4,1.6,16.1,58.1,1016.3,0.00,0,0.0,////,0.0,0,0.0,////,14.6,0.0,12.3,3.524
2012/04/01,22:50:01,156,165,171,1.0,1.2,1.3,16.0,58.2,1016.4,0.00,0,0.0,////,0.0,0,0.0,////,14.4,0.0,12.4,3.524
2012/04/01,23:00:01,123,128,136,1.0,1.5,2.0,16.0,57.8,1016.3,0.00,0,0.0,////,0.0,0,0.0,////,14.4,0.0,12.4,3.525
2012/04/01,23:10:01,128,135,145,1.1,1.3,1.5,16.1,57.7,1016.2,0.00,0,0.0,////,0.0,0,0.0,////,14.4,0.0,12.2,3.523
2012/04/01,23:20:01,141,147,151,1.2,1.4,1.6,16.0,57.3,1015.9,0.00,0,0.0,////,0.0,0,0.0,////,14.3,0.0,12.4,3.523
2012/04/01,23:30:01,131,140,150,0.9,1.1,1.3,16.1,57.4,1015.9,0.00,0,0.0,////,0.0,0,0.0,////,14.4,0.0,12.3,3.523
2012/04/01,23:40:01,136,148,163,1.3,1.6,1.8,16.2,58.1,1015.9,0.00,0,0.0,////,0.0,0,0.0,////,14.8,0.0,12.3,3.524
2012/04/01,23:50:01,127,131,135,2.0,2.1,2.3,16.2,58.5,1015.9,0.00,0,0.0,////,0.0,0,0.0,////,15.0,0.0,12.2,3.523
2012/04/02,00:00:01,156,161,170,1.0,1.2,1.5,16.1,59.3,1015.8,0.00,0,0.0,////,0.0,0,0.0,////,14.6,0.0,12.2,3.523
2012/04/02,00:10:01,151,161,168,1.5,2.0,2.4,16.3,58.9,1015.7,0.00,0,0.0,////,0.0,0,0.0,////,14.6,0.0,12.2,3.524
2012/04/02,00:20:01,132,143,159,0.9,1.2,1.5,16.1,59.5,1015.5,0.00,0,0.0,////,0.0,0,0.0,////,14.8,0.0,12.4,3.523
2012/04/02,00:30:01,142,152,163,0.8,1.2,1.6,16.2,59.1,1015.4,0.00,0,0.0,////,0.0,0,0.0,////,14.6,0.0,12.3,3.523
2012/04/02,00:40:01,127,135,140,1.0,1.4,1.9,16.0,59.7,1015.3,0.00,0,0.0,////,0.0,0,0.0,////,14.4,0.0,12.1,3.523
2012/04/02,00:50:01,162,170,177,1.3,1.4,1.6,16.1,59.3,1015.2,0.00,0,0.0,////,0.0,0,0.0,////,14.4,0.0,12.4,3.523
2012/04/02,01:00:01,128,132,135,1.9,2.0,2.1,16.1,59.3,1015.2,0.00,0,0.0,////,0.0,0,0.0,////,14.4,0.0,12.2,3.523
2012/04/02,01:10:01,124,134,144,1.9,2.3,2.7,16.1,59.4,1015.0,0.00,0,0.0,////,0.0,0,0.0,////,14.4,0.0,12.4,3.523
2012/04/02,01:20:01,114,117,119,2.1,2.4,2.8,16.0,58.8,1015.0,0.00,0,0.0,////,0.0,0,0.0,////,14.4,0.0,12.1,3.523
2012/04/02,01:30:01,143,148,153,1.2,1.4,1.6,16.1,58.0,1014.9,0.00,0,0.0,////,0.0,0,0.0,////,14.6,0.0,12.4,3.523
2012/04/02,01:40:01,139,140,141,1.2,1.5,1.8,16.0,58.1,1014.8,0.00,0,0.0,////,0.0,0,0.0,////,14.6,0.0,12.4,3.523
2012/04/02,01:50:01,118,138,153,1.7,1.9,2.1,16.2,57.6,1014.8,0.00,0,0.0,////,0.0,0,0.0,////,14.6,0.0,12.2,3.524
2012/04/02,02:00:01,136,144,157,0.9,1.0,1.2,16.1,56.6,1014.7,0.00,0,0.0,////,0.0,0,0.0,////,14.6,0.0,12.2,3.523
2012/04/02,02:10:01,146,154,158,0.9,1.2,1.4,16.0,56.4,1014.5,0.00,0,0.0,////,0.0,0,0.0,////,14.4,0.0,12.3,3.523
2012/04/02,02:20:01,126,130,135,1.3,1.7,2.0,16.1,56.5,1014.5,0.00,0,0.0,////,0.0,0,0.0,////,14.4,0.0,12.4,3.523
2012/04/02,02:30:01,145,159,172,1.1,1.2,1.4,16.1,56.9,1014.3,0.00,0,0.0,////,0.0,0,0.0,////,14.4,0.0,12.2,3.524
2012/04/02,02:40:01,113,145,180,0.5,0.7,0.9,16.1,57.2,1014.3,0.00,0,0.0,////,0.0,0,0.0,////,15.1,0.0,12.3,3.523
2012/04/02,02:50:01,122,123,125,0.8,1.1,1.4,16.1,57.8,1014.1,0.00,0,0.0,////,0.0,0,0.0,////,14.4,0.0,12.3,3.523
2012/04/02,03:00:01,125,155,199,0.4,0.7,1.0,16.0,58.2,1014.1,0.00,0,0.0,////,0.0,0,0.0,////,14.4,0.0,12.3,3.523
2012/04/02,03:10:01,167,173,183,0.8,1.1,1.4,16.0,59.5,1014.2,0.00,0,0.0,////,0.0,0,0.0,////,14.4,0.0,12.4,3.523
2012/04/02,03:20:01,122,129,137,1.1,1.5,1.9,16.1,59.6,1014.0,0.00,0,0.0,////,0.0,0,0.0,////,14.1,0.0,12.2,3.523
2012/04/02,03:30:01,121,139,157,1.0,1.3,1.5,16.1,61.3,1013.9,0.00,0,0.0,////,0.0,0,0.0,////,14.4,0.0,12.3,3.524
2012/04/02,03:40:01,107,110,113,1.2,1.5,1.8,16.0,62.0,1013.9,0.00,0,0.0,////,0.0,0,0.0,////,14.4,0.0,12.4,3.521
2012/04/02,03:50:01,122,131,143,2.0,2.2,2.5,15.9,62.5,1013.9,0.00,0,0.0,////,0.0,0,0.0,////,14.3,0.0,12.4,3.524
2012/04/02,04:00:01,154,162,168,0.8,1.7,2.2,16.0,62.5,1013.8,0.00,0,0.0,////,0.0,0,0.0,////,14.4,0.0,12.2,3.523
2012/04/02,04:10:01,115,124,133,1.2,1.4,1.6,16.0,62.6,1013.8,0.00,0,0.0,////,0.0,0,0.0,////,14.4,0.0,12.4,3.521
2012/04/02,04:20:01,116,123,129,1.5,2.0,2.4,16.0,62.6,1013.7,0.00,0,0.0,////,0.0,0,0.0,////,14.4,0.0,12.3,3.523
2012/04/02,04:30:01,171,178,182,1.6,1.8,2.0,15.9,63.3,1013.7,0.00,0,0.0,////,0.0,0,0.0,////,14.4,0.0,12.2,3.521
2012/04/02,04:40:01,114,120,131,2.0,2.2,2.4,16.1,63.2,1013.6,0.00,0,0.0,////,0.0,0,0.0,////,14.4,0.0,12.4,3.521
2012/04/02,04:50:01,138,142,149,1.5,1.7,1.8,16.1,64.4,1013.5,0.00,0,0.0,////,0.0,0,0.0,////,15.0,0.0,12.3,3.524
2012/04/02,05:00:01,131,147,160,1.3,1.5,1.7,16.1,65.3,1013.5,0.00,0,0.0,////,0.0,0,0.0,////,14.4,0.0,12.3,3.523
2012/04/02,05:10:01,094,106,115,1.5,1.9,2.3,16.1,64.4,1013.6,0.00,0,0.0,////,0.0,0,0.0,////,14.4,0.0,12.2,3.523
2012/04/02,05:20:01,162,167,175,1.0,1.1,1.2,16.1,64.1,1013.5,0.00,0,0.0,////,0.0,0,0.0,////,14.6,0.0,12.4,3.523
2012/04/02,05:30:01,082,108,127,1.0,1.5,1.9,16.1,64.5,1013.6,0.00,0,0.0,////,0.0,0,0.0,////,14.6,0.0,12.4,3.523
2012/04/02,05:40:01,120,138,153,2.1,2.3,2.4,16.2,64.2,1013.7,0.00,0,0.0,////,0.0,0,0.0,////,14.6,0.0,12.2,3.524
2012/04/02,05:50:01,115,131,142,1.3,1.4,1.4,16.3,64.2,1013.7,0.00,0,0.0,////,0.0,0,0.0,////,14.6,0.0,12.3,3.523
2012/04/02,06:00:01,133,154,166,2.1,2.4,2.6,16.2,64.5,1013.8,0.00,0,0.0,////,0.0,0,0.0,////,14.6,0.0,12.2,3.524
2012/04/02,06:10:01,131,141,147,1.2,1.3,1.3,16.2,64.3,1013.8,0.00,0,0.0,////,0.0,0,0.0,////,14.6,0.0,12.2,3.523
2012/04/02,06:20:01,161,162,163,2.5,2.7,2.9,16.2,64.6,1013.7,0.00,0,0.0,////,0.0,0,0.0,////,14.8,0.0,12.4,3.523
2012/04/02,06:30:01,118,130,137,1.6,2.2,2.5,16.3,64.9,1013.8,0.00,0,0.0,////,0.0,0,0.0,////,15.0,0.0,12.3,3.524
2012/04/02,06:40:01,113,124,131,0.9,1.3,1.7,16.3,65.2,1013.8,0.00,0,0.0,////,0.0,0,0.0,////,15.1,0.0,12.2,3.523
2012/04/02,06:50:01,131,153,173,1.5,1.8,2.0,16.5,65.6,1013.7,0.00,0,0.0,////,0.0,0,0.0,////,15.1,0.0,12.2,3.521
2012/04/02,07:00:01,117,122,126,1.8,2.1,2.3,16.9,65.3,1013.8,0.00,0,0.0,////,0.0,0,0.0,////,15.6,0.0,12.4,3.523
2012/04/02,07:10:01,130,134,141,0.9,1.3,1.5,17.0,65.0,1013.8,0.00,0,0.0,////,0.0,0,0.0,////,16.2,0.0,12.2,3.523
2012/04/02,07:20:01,112,115,118,3.1,3.3,3.6,17.2,64.7,1013.9,0.00,0,0.0,////,0.0,0,0.0,////,16.7,0.0,12.2,3.523
2012/04/02,07:30:01,118,121,126,2.9,3.1,3.3,17.7,63.5,1013.9,0.00,0,0.0,////,0.0,0,0.0,////,17.4,0.0,12.4,3.523
2012/04/02,07:40:01,133,141,153,1.3,1.8,2.3,17.9,63.7,1014.0,0.00,0,0.0,////,0.0,0,0.0,////,17.9,0.0,12.1,3.523
2012/04/02,07:50:01,119,129,139,1.9,2.2,2.4,18.3,63.0,1014.1,0.00,0,0.0,////,0.0,0,0.0,////,18.6,0.0,12.2,3.523
2012/04/02,08:00:01,148,154,158,1.9,2.3,2.7,18.5,62.8,1014.1,0.00,0,0.0,////,0.0,0,0.0,////,18.7,0.0,12.2,3.521
2012/04/02,08:10:01,154,155,155,2.2,2.4,2.5,18.7,62.7,1014.2,0.00,0,0.0,////,0.0,0,0.0,////,19.3,0.0,12.4,3.521
2012/04/02,08:20:01,107,122,140,1.9,2.3,2.7,19.2,62.2,1014.3,0.00,0,0.0,////,0.0,0,0.0,////,20.1,0.0,12.2,3.523
2012/04/02,08:30:01,130,148,166,2.1,2.6,3.4,19.1,61.8,1014.3,0.00,0,0.0,////,0.0,0,0.0,////,19.8,0.0,12.2,3.523
2012/04/02,08:40:01,105,149,212,0.3,0.7,1.1,19.7,60.9,1014.5,0.00,0,0.0,////,0.0,0,0.0,////,21.2,0.0,12.2,3.521
2012/04/02,08:50:01,086,114,133,0.5,1.4,2.1,20.2,59.5,1014.7,0.00,0,0.0,////,0.0,0,0.0,////,22.0,0.0,12.4,3.521
2012/04/02,09:00:01,119,139,150,1.4,1.6,1.7,20.0,60.5,1014.6,0.00,0,0.0,////,0.0,0,0.0,////,21.5,0.0,12.2,3.523
2012/04/02,09:10:01,092,098,108,1.2,1.3,1.4,20.3,58.9,1014.7,0.00,0,0.0,////,0.0,0,0.0,////,22.2,0.0,12.3,3.521
2012/04/02,09:20:01,185,194,207,1.3,1.5,1.6,20.3,58.7,1014.9,0.00,0,0.0,////,0.0,0,0.0,////,21.8,0.0,12.2,3.523
2012/04/02,09:30:01,121,138,160,1.9,2.4,2.7,20.4,57.8,1014.8,0.00,0,0.0,////,0.0,0,0.0,////,22.0,0.0,12.2,3.521
2012/04/02,09:40:01,143,149,152,2.4,2.6,2.9,20.6,58.9,1014.7,0.00,0,0.0,////,0.0,0,0.0,////,22.7,0.0,12.3,3.521
2012/04/02,09:50:01,092,107,133,1.6,1.8,2.0,20.3,57.6,1014.7,0.00,0,0.0,////,0.0,0,0.0,////,22.0,0.0,12.4,3.523
2012/04/02,10:00:01,108,128,144,2.9,3.3,3.6,20.4,58.4,1014.8,0.00,0,0.0,////,0.0,0,0.0,////,21.5,0.0,12.4,3.521
2012/04/02,10:10:01,146,164,174,2.9,3.2,3.6,20.8,57.2,1014.8,0.00,0,0.0,////,0.0,0,0.0,////,22.5,0.0,12.2,3.521
2012/04/02,10:20:01,085,090,100,1.2,1.6,2.0,21.1,57.4,1014.7,0.00,0,0.0,////,0.0,0,0.0,////,23.2,0.0,12.4,3.521
2012/04/02,10:30:01,122,132,141,1.5,1.8,2.2,21.0,54.8,1014.5,0.00,0,0.0,////,0.0,0,0.0,////,23.2,0.0,12.4,3.521
2012/04/02,10:40:01,109,149,226,0.4,0.8,1.3,21.1,55.4,1014.6,0.00,0,0.0,////,0.0,0,0.0,////,23.2,0.0,12.2,3.521